Probability
0 0 0 0 0 0 0 0 0 0 0 0 0 0 0 0 0 0 0 0 0 1 2 1 0 0 1 2 2 1 1 1 1 0 0 0 0 0 0 0 0 0 0 0
0 0 0 0 0 0 0 0 0 0 0 0 0 0 0 0 0 0 0 0 0 1 1 1 0 0 0 1 1 1 1 1 0 0 0 0 0 0 0 0 0 0 0 0
0 0 0 0 0 0 0 0 0 0 0 0 0 0 0 0 0 0 0 0 0 0 0 0 0 0 0 0 1 1 1 0 0 0 0 0 0 0 0 0 0 0 0 0
0 0 0 0 0 0 0 0 0 0 0 0 0 0 0 0 0 0 0 0 0 0 0 0 0 0 0 1 1 0 0 0 0 0 0 0 0 0 0 0 0 0 0 0
0 0 0 0 0 0 0 0 0 0 0 0 0 0 0 0 0 0 0 0 0 0 0 0 0 0 0 1 0 0 0 0 0 0 0 0 0 0 0 0 0 0 0 0
0 0 0 0 0 0 0 0 0 0 0 0 0 0 0 0 0 0 0 0 0 0 0 0 0 0 0 0 0 0 0 0 0 0 0 0 0 0 0 0 0 0 0 0
0 0 0 0 0 0 0 0 0 0 0 0 0 0 0 0 0 0 0 0 0 0 0 0 0 0 0 0 0 0 0 0 0 0 0 0 0 0 0 0 0 0 0 0
0 0 0 0 0 0 0 0 0 0 0 0 0 0 0 0 0 0 0 0 0 0 0 0 0 0 0 0 0 0 0 0 0 0 0 0 0 0 0 0 0 0 0 0
0 0 0 0 0 0 0 0 0 0 0 0 0 0 0 0 0 0 0 0 0 0 0 0 0 0 0 0 0 0 0 0 0 0 0 0 0 0 0 0 0 0 0 0
0 0 0 0 0 0 0 0 0 0 0 0 0 0 0 0 0 0 0 0 0 0 0 0 0 0 0 0 0 0 0 0 0 0 0 0 0 0 0 0 0 0 0 0
0 0 0 0 0 0 0 0 0 0 0 0 0 0 0 0 0 0 0 0 0 0 0 0 0 0 0 0 0 0 0 0 0 0 0 0 0 0 0 0 0 0 0 0
0 0 0 0 0 0 0 0 0 0 0 0 0 0 0 0 0 0 0 0 0 0 0 0 0 0 0 0 0 0 0 0 0 0 0 0 0 0 0 0 0 0 0 0
0 0 0 0 0 0 0 0 0 0 0 0 0 0 0 0 0 0 0 0 0 0 0 0 0 0 0 0 0 0 0 0 0 0 0 0 0 0 0 0 0 0 0 0
0 0 0 0 0 0 0 0 0 0 0 0 0 0 0 0 0 0 0 0 0 0 0 0 0 0 0 0 0 0 0 0 0 0 0 0 0 0 0 0 0 0 0 0
0 0 0 0 0 0 0 0 0 0 0 0 0 0 0 0 0 0 0 0 0 0 0 0 0 0 0 0 0 0 0 0 0 0 0 0 0 0 0 0 0 0 0 0
0 0 0 0 0 0 0 0 0 0 0 0 0 0 0 0 0 0 0 0 0 0 0 0 0 0 0 0 0 0 0 0 0 0 0 0 0 0 0 0 0 0 0 0
0 0 0 0 0 0 0 0 0 0 0 0 0 0 0 0 0 0 0 0 0 0 0 0 0 0 0 0 0 0 0 0 0 0 0 0 0 0 0 0 0 0 0 0
0 0 0 0 0 0 0 0 0 0 0 0 0 0 0 0 0 0 0 0 0 0 0 0 0 0 0 0 0 0 0 0 0 0 0 0 0 0 0 0 0 0 0 0
0 0 0 0 0 0 0 0 0 0 0 0 0 0 0 0 0 0 0 0 0 0 0 0 0 0 0 0 0 0 0 0 0 0 0 0 0 0 0 0 0 0 0 0
0 0 0 0 0 0 0 0 0 0 0 0 0 0 0 0 0 0 0 0 0 0 0 0 0 0 0 0 0 0 0 0 0 0 0 0 0 0 0 0 0 0 0 0
0 0 0 0 0 0 0 0 0 0 0 0 0 0 0 0 0 0 0 0 0 0 0 0 0 0 0 0 0 0 0 0 0 0 0 0 0 0 0 0 0 0 0 0
0 0 0 0 0 0 0 0 0 0 0 0 0 0 0 0 0 0 0 0 0 0 0 0 0 0 0 0 0 0 0 0 0 0 0 0 0 0 0 0 0 0 0 0
0 0 0 0 0 0 0 0 0 0 0 0 0 0 0 0 0 0 0 0 0 0 0 0 0 0 0 0 0 0 0 0 0 0 0 0 0 0 0 0 0 0 0 0
0 0 0 0 0 0 0 0 0 0 0 0 0 0 0 0 0 0 0 0 0 0 0 0 0 0 0 0 0 0 0 0 0 0 0 0 0 0 0 0 0 0 0 0
0 0 0 0 0 0 0 0 0 0 0 0 0 0 0 0 0 0 0 0 0 0 0 0 0 0 0 0 0 0 0 0 0 0 0 0 0 0 0 0 0 0 0 0
0 0 0 0 0 0 0 0 0 0 0 0 0 0 0 0 0 0 0 0 0 0 0 0 0 0 0 0 0 0 0 0 0 0 0 0 0 0 0 0 0 0 0 0
Wind_Speed
2 3 4 6 7 5 4 6 8 6 3 5 10 13 12 9 8 8 7 6 5 6 4 3 3 3 3 3 3 4 4 4 4 3 3 3 2 1 1 1 1 1 1 1
3 5 6 4 4 5 5 6 7 5 2 5 9 14 12 9 9 8 8 7 6 6 4 3 2 2 3 3 3 4 5 5 5 3 3 2 2 1 1 1 1 1 1 1
6 2 3 5 4 5 7 8 8 7 5 4 8 10 7 5 6 6 7 7 6 6 5 4 3 3 3 3 4 3 5 5 5 4 3 2 2 1 1 1 1 1 1 2
4 3 3 5 6 6 7 6 7 7 6 4 4 8 6 5 6 7 7 6 6 5 5 4 3 3 3 3 3 4 4 5 5 5 5 5 4 3 2 2 1 1 1 1
4 3 4 6 7 7 4 2 4 5 6 7 5 8 7 3 7 8 7 6 5 4 4 4 3 3 3 3 3 3 3 4 5 5 6 5 4 3 2 2 2 2 1 1
2 1 3 3 2 4 2 1 1 2 4 8 7 8 9 5 7 6 5 4 4 4 4 3 3 2 2 2 2 2 3 4 4 5 5 6 5 4 3 3 3 2 1 2
3 4 2 1 2 3 3 3 2 3 4 7 3 8 10 5 6 7 6 4 4 3 3 3 3 3 2 2 2 2 3 4 4 5 5 6 6 5 5 4 4 3 2 2
5 5 5 4 4 4 6 5 5 6 6 5 4 10 7 4 4 5 5 4 3 3 3 2 3 3 2 2 2 2 2 3 4 4 5 4 4 4 3 4 3 4 3 3
5 4 2 2 2 5 5 5 3 3 2 6 7 7 7 3 4 3 3 3 3 3 3 3 3 2 2 2 2 2 2 3 3 3 3 4 4 4 4 4 4 3 3 2
4 4 2 2 2 2 3 3 3 4 5 7 7 7 5 3 3 2 3 4 4 3 2 2 2 2 2 2 1 1 2 3 2 2 3 2 3 3 3 3 3 2 2 2
3 4 2 3 7 8 6 5 5 4 4 6 7 6 2 4 4 4 4 4 3 3 3 2 2 2 1 1 1 1 1 1 1 2 2 2 2 2 2 2 2 2 2 2
3 3 4 5 2 4 7 8 8 6 6 6 7 8 0 3 4 3 4 4 3 3 2 2 2 1 1 1 1 1 1 1 1 1 1 1 1 2 2 2 2 2 2 1
4 4 3 3 3 3 6 7 8 5 4 6 8 9 1 1 2 4 4 4 3 2 1 1 1 1 1 1 1 1 1 1 1 1 1 1 1 2 2 2 1 2 2 1
3 4 7 9 5 4 7 8 9 8 8 9 14 15 9 7 6 5 4 3 3 2 1 1 1 1 1 1 1 1 1 1 0 0 1 1 1 2 2 2 2 2 1 1
4 6 7 8 7 5 9 11 12 14 14 14 15 16 15 11 8 6 4 3 3 2 2 2 2 2 2 1 1 1 1 1 0 0 0 0 0 1 1 1 1 1 1 1
3 5 3 6 7 7 10 14 15 17 17 18 18 19 14 10 7 5 4 3 3 3 3 3 2 2 2 2 1 1 1 1 0 0 0 0 1 1 1 1 1 0 0 0
5 4 4 7 4 4 12 15 17 14 14 14 18 15 8 6 5 5 5 4 4 4 3 3 2 2 2 2 2 2 1 0 0 0 0 1 0 1 0 0 0 0 0 0
7 5 3 3 2 12 9 4 10 14 13 12 11 9 8 7 5 4 4 4 4 3 3 3 2 3 2 1 2 1 1 0 0 0 1 1 1 0 0 0 0 1 1 1
8 7 5 4 7 11 10 5 6 9 10 9 11 10 7 3 2 4 2 2 3 3 2 2 2 2 1 1 1 1 1 1 1 1 1 1 1 1 1 1 1 1 1 1
5 6 6 6 8 11 7 2 2 4 8 5 7 8 5 3 5 4 0 1 1 2 2 1 1 1 1 1 1 1 1 1 1 2 2 2 1 1 1 2 2 2 1 2
6 6 10 11 11 11 6 2 4 7 6 1 5 6 5 6 5 1 1 1 1 2 2 1 1 1 1 1 1 0 0 1 2 2 2 2 2 2 2 2 2 2 1 2
9 8 9 8 10 12 4 6 8 5 1 1 3 3 4 4 2 1 1 1 1 1 2 1 1 1 2 1 0 1 1 2 2 2 2 2 2 2 1 1 2 2 1 2
10 10 7 10 9 3 4 6 3 1 2 3 2 3 3 3 3 3 2 2 1 1 1 2 1 2 2 1 1 2 2 2 2 2 2 2 2 2 2 1 2 2 2 2
6 3 5 7 9 7 6 5 5 4 4 3 2 2 3 4 4 3 2 2 1 1 1 1 1 2 2 2 2 2 2 2 1 2 2 2 2 2 2 2 2 2 2 2
6 5 5 8 7 5 6 7 6 4 3 2 2 2 3 3 3 3 2 2 1 2 2 2 2 2 3 3 3 3 2 1 1 2 2 2 2 2 2 2 2 3 3 3
6 7 8 9 6 6 5 3 3 4 4 3 2 2 2 2 2 2 2 1 1 2 2 2 2 3 3 3 3 3 2 1 2 2 2 2 2 2 2 2 3 4 4 6
Wind_Direction
134 170 200 208 214 238 243 247 259 270 286 263 263 269 274 264 251 252 256 259 262 265 276 285 281 275 266 251 235 223 210 193 184 185 184 184 183 171 154 139 128 139 132 150
155 221 237 223 203 214 233 252 267 275 287 270 280 275 270 257 242 241 247 249 257 268 275 281 286 284 266 251 236 227 212 199 192 192 189 192 192 182 158 131 131 136 141 154
197 215 215 201 204 214 233 246 260 274 294 256 285 271 250 239 235 242 246 250 258 262 268 275 272 273 271 254 241 231 216 203 197 188 173 147 139 127 147 176 185 190 183 179
223 239 194 198 219 225 241 247 256 261 267 274 294 282 262 241 245 242 246 251 257 259 261 268 269 267 266 261 246 232 217 205 195 186 183 177 182 186 200 205 206 192 186 188
210 200 205 217 230 222 241 260 240 247 247 262 245 259 270 235 254 249 244 247 255 260 260 266 269 269 269 263 252 237 219 205 196 195 192 193 195 197 186 178 183 184 186 192
244 221 232 236 236 210 172 161 162 200 229 247 236 240 267 233 244 254 251 250 256 263 267 267 278 287 286 281 263 247 221 208 199 199 200 199 198 191 181 182 186 192 199 205
235 227 220 191 163 169 193 204 233 234 230 245 212 236 254 255 245 250 255 261 264 257 260 266 279 286 289 278 263 249 218 215 206 203 205 203 202 199 197 192 197 198 202 216
215 232 206 201 210 198 202 221 227 248 253 265 224 240 258 287 272 260 256 261 270 267 270 278 287 284 276 273 263 253 228 224 215 211 213 208 204 204 205 205 204 207 213 215
220 230 144 199 226 194 192 219 264 248 279 266 245 260 281 263 270 256 260 268 278 281 284 290 300 299 289 270 261 254 239 228 220 219 217 211 208 206 205 202 203 207 212 210
216 233 204 177 170 212 246 182 181 209 234 253 258 252 254 265 271 275 278 288 299 310 303 304 305 307 307 294 277 259 245 227 221 214 211 209 208 211 207 195 196 199 203 197
221 211 194 188 206 202 179 192 209 215 242 246 263 258 234 250 266 273 280 289 291 291 288 294 302 301 315 326 297 277 273 243 218 211 205 198 200 199 193 187 185 185 191 193
205 216 233 235 241 264 223 213 200 217 228 237 257 267 132 257 276 268 278 291 292 284 287 291 298 314 331 335 327 296 287 269 238 212 191 192 184 177 177 181 178 175 181 193
171 187 232 241 211 204 225 221 217 226 221 223 239 258 116 267 268 269 279 288 293 288 306 309 298 305 312 318 319 315 302 285 280 215 187 173 162 166 178 179 178 178 180 187
200 214 226 245 262 215 225 225 214 209 227 238 241 258 267 272 281 289 289 284 289 295 307 290 291 301 305 307 308 316 319 309 288 208 199 180 174 179 180 172 172 175 181 189
207 237 243 260 270 252 246 237 223 224 233 242 256 260 268 274 275 280 284 283 289 301 308 302 309 324 325 320 324 324 329 328 346 152 205 214 185 158 149 154 157 153 176 211
209 234 242 266 261 260 268 252 238 238 243 248 261 267 272 279 275 274 274 269 275 288 293 300 307 320 324 323 313 293 303 319 282 154 29 12 113 113 117 124 129 137 190 232
196 193 224 259 290 287 260 243 231 232 234 237 247 257 269 266 253 258 266 263 270 283 289 287 290 294 295 308 313 299 283 290 243 187 57 25 70 104 63 61 104 196 234 260
192 192 219 253 234 244 254 253 232 237 244 239 248 263 261 263 268 276 266 257 270 287 293 296 300 302 309 328 333 337 5 26 8 18 33 11 1 357 4 341 288 283 286 265
203 189 197 217 247 268 274 245 216 226 250 238 241 256 268 272 276 273 267 255 265 290 304 307 310 312 330 346 353 28 46 31 11 342 338 342 334 323 305 283 284 298 295 290
194 198 206 213 237 253 264 221 206 218 255 228 222 239 246 207 244 263 260 290 311 339 338 331 337 5 23 358 11 66 53 13 324 313 309 311 304 294 292 296 303 315 309 297
180 204 216 225 241 258 266 188 165 217 257 205 214 225 209 217 249 306 11 332 346 351 357 358 13 14 359 357 16 23 336 301 308 313 309 305 302 298 293 303 313 317 315 308
190 197 207 209 230 248 179 160 199 237 0 210 226 224 219 229 243 250 267 285 313 331 346 2 6 347 354 0 346 292 293 309 324 319 309 305 305 305 298 300 308 312 301 295
212 208 204 208 230 269 173 206 228 233 219 233 242 240 216 227 247 261 272 273 284 306 328 340 337 332 342 338 303 272 293 317 322 315 303 300 308 307 300 282 283 292 282 276
234 233 227 243 251 250 239 241 244 235 230 233 227 222 226 241 248 254 262 273 284 306 317 322 318 311 311 313 303 290 300 312 295 280 288 295 298 304 305 293 272 266 264 269
223 200 226 248 263 272 252 238 240 242 230 224 232 243 233 224 238 247 256 266 286 308 319 312 297 291 296 303 299 306 310 306 277 273 280 289 288 288 290 291 280 273 271 267
208 207 220 246 241 235 250 240 229 226 238 233 230 256 257 227 239 252 254 271 292 302 312 305 300 294 295 300 301 306 302 274 251 256 263 266 271 274 275 284 300 296 286 287